Regional Weather Roundup
Issued by NWS

Home | Current Version | Previous Version | Graphics & Text | Print | Product List | Glossary On
Versions: 1 2 3 4 5 6 7 8 9 10 11 12 13 14 15 16 17 18 19 20 21 22 23 24 25 26 27 28 29 30 31 32 33 34 35 36 37 38 39 40 41 42 43 44 45 46 47 48 49 50
000
ASUS43 KOAX 020810
RWRNE

WEATHER ROUNDUP FOR NEBRASKA
NATIONAL WEATHER SERVICE OMAHA NE
300 AM CDT MON MAY 02 2016

NOTES: SATELLITE DATA IS BEING USED TO AUGMENT CLOUD COVER ABOVE
       12000 FEET.
       "FAIR" INDICATES FEW OR NO CLOUDS BELOW 12,000 FEET WITH NO
       SIGNIFICANT WEATHER AND/OR OBSTRUCTIONS TO VISIBILITY.

  * THESE STATIONS DO NOT REPORT WEATHER SUCH AS RAIN...SNOW OR FOG.

NEZ001>004-019>022-054>056-020900-
NEBRASKA PANHANDLE

CITY           SKY/WX    TMP DP  RH WIND       PRES   REMARKS
SCOTTSBLUFF    CLEAR     34  28  79 N8        30.25S WCI  27
ALLIANCE       CLEAR     24  22  91 W10       30.22F WCI  14
CHADRON        CLEAR     32  29  88 SW7       30.23F WCI  26
KIMBALL        CLEAR     28  25  91 W5        30.25F WCI  22
SIDNEY         CLEAR     31  25  78 W10       30.24F WCI  22
$$

NEZ057>060-069>072-079>082-020900-
SOUTHWEST NEBRASKA

CITY           SKY/WX    TMP DP  RH WIND       PRES   REMARKS
NORTH PLATTE   CLEAR     29  29 100 W3        30.23F
IMPERIAL       CLEAR     36  29  75 NW9       30.24F WCI  29
LEXINGTON      CLEAR     34  32  92 W7        30.22F WCI  28
MCCOOK         CLOUDY    38  34  85 W6        30.23F WCI  33
OGALLALA       CLEAR     33  29  86 W5        30.23F WCI  28
$$

NEZ005>010-023>029-035>040-094-020900-
NORTH CENTRAL NEBRASKA

CITY           SKY/WX    TMP DP  RH WIND       PRES   REMARKS
VALENTINE      CLEAR     29  27  92 SW6       30.21F WCI  23
AINSWORTH      CLEAR     36  32  87 W7        30.20F WCI  30
BROKEN BOW     CLEAR     31  30  96 CALM      30.20F
O`NEILL        CLEAR     39  35  86 W5        30.18F
ORD            CLEAR     34  32  92 CALM      30.19F
THEDFORD         N/A     33  32  96 W3        30.22F
$$

NEZ041-046>049-061>064-073>077-083>087-020900-
SOUTH CENTRAL NEBRASKA

CITY           SKY/WX    TMP DP  RH WIND       PRES   REMARKS
GRAND ISLAND   CLOUDY    45  41  86 W5        30.19F
AURORA         CLOUDY    45  44  95 W5        30.18F
HASTINGS       CLOUDY    45  41  86 NW8       30.19F
HEBRON         CLOUDY    47  44  89 NW3       30.18F
HOLDREGE       CLEAR     39  37  92 W8        30.20F WCI  33
KEARNEY *      MOCLDY    37  34  87 NW6       30.21F WCI  33
YORK           MOCLDY    45  41  87 NW9       30.18F
$$

NEZ011>018-030>034-042>045-020900-
NORTHEAST NEBRASKA

CITY           SKY/WX    TMP DP  RH WIND       PRES   REMARKS
NORFOLK        CLEAR     38  34  85 W3        30.17F
ALBION         CLEAR     34  32  92 NW5       30.18F WCI  30
BLAIR          CLOUDY    48  43  82 NW6       30.13F
COLUMBUS *     CLEAR     39  32  75 W5        30.18F
FREMONT        CLOUDY    46  43  89 W3        30.16F
TEKAMAH        CLOUDY    47  41  80 N8        30.15F
WAYNE          CLEAR     35  34  97 SW5       30.17S WCI  31
$$

NEZ050>053-065>068-078-088>093-020900-
SOUTHEAST NEBRASKA

CITY           SKY/WX    TMP DP  RH WIND       PRES   REMARKS
LINCOLN        CLOUDY    49  43  80 NW5       30.17F
OMAHA EPPLEY   CLOUDY    48  46  93 N5        30.14F
BEATRICE       CLOUDY    46  44  93 W3        30.16F
FALLS CITY     CLOUDY    46  43  89 NW8       30.13F
NEBRASKA CITY  CLOUDY    47  47 100 W6        30.14F
PLATTSMOUTH    CLOUDY    47  45  91 W6        30.14S
$$

NEZ044-045-051>053-067-020900-
OMAHA AREA

CITY           SKY/WX    TMP DP  RH WIND       PRES   REMARKS
OMAHA EPPLEY   CLOUDY    48  46  93 N5        30.14F
BLAIR          CLOUDY    48  43  82 NW6       30.13F
FREMONT        CLOUDY    46  43  89 W3        30.16F
MILLARD        CLOUDY    49  44  83 NW6       30.14F
OFFUTT AFB     CLOUDY    48  46  95 W7        30.13F
PLATTSMOUTH    CLOUDY    47  45  91 W6        30.14S
WAHOO          CLOUDY    48  42  81 NW7       30.15F
$$




USA.gov is the U.S. government's official web portal to all federal, state and local government web resources and services.